KR8E Weather Reports


time (UTC)temp
C
wind
direction
speed
KPH
gust
KPH
rain 1hr
cm
rain 24hr
cm
rain mn
cm
humidity
%
barometer
mb
20260510142532 13 90 1.6 3.2 0.00 0.03 0.00 76 1016.8
20260510141517 13 0.0 0.0 0.00 0.03 0.00 78 1016.6
20260510140521 13 0.0 0.0 0.00 0.03 0.00 78 1016.6
20260510135524 13 33 1.6 3.2 0.00 0.03 0.00 78 1016.6
20260510134528 13 75 1.6 3.2 0.00 0.03 0.00 80 1016.5
20260510133525 13 0.0 0.0 0.00 0.03 0.00 82 1016.3
20260510132517 13 77 1.6 4.8 0.00 0.03 0.00 81 1016.1
20260510131520 13 135 1.6 4.8 0.00 0.05 0.00 82 1016.1
20260510130538 13 284 1.6 3.2 0.00 0.05 0.00 83 1015.9
20260510125516 13 148 0.0 3.2 0.00 0.05 0.00 85 1015.9
20260510124531 13 68 1.6 4.8 0.00 0.05 0.00 86 1015.9
20260510123537 13 0.0 0.0 0.00 0.05 0.00 87 1015.9
20260510122540 13 135 0.0 3.2 0.00 0.05 0.00 90 1015.4
20260510121524 12 0.0 0.0 0.00 0.05 0.00 92 1015.4
20260510120527 12 0.0 3.2 0.00 0.05 0.00 94 1015.0
20260510115531 12 0.0 0.0 0.00 0.05 0.00 95 1015.0
20260510114557 12 0.0 0.0 0.00 0.05 0.00 96 1014.9
20260510113520 12 90 0.0 1.6 0.00 0.05 0.00 96 1014.7
20260510112524 12 0.0 0.0 0.00 0.05 0.00 97 1014.3
20260510111528 12 0.0 0.0 0.00 0.05 0.00 97 1014.0
20260510110531 12 0.0 0.0 0.00 0.05 0.00 97 1013.7
20260510105536 12 0.0 0.0 0.00 0.05 0.00 97 1013.7
20260510104520 12 0.0 0.0 0.00 0.05 0.00 98 1013.6
20260510103524 12 0.0 0.0 0.00 0.05 0.00 99 1013.3
20260510102547 11 0.0 0.0 0.00 0.05 0.00 99 1013.3
20260510101531 11 0.0 0.0 0.00 0.05 0.00 99 1013.0
20260510100516 11 0.0 0.0 0.00 0.05 0.00 99 1012.7
20260510095520 11 0.0 0.0 0.00 0.05 0.00 99 1012.5
20260510094524 10 0.0 0.0 0.00 0.05 0.00 99 1012.3
20260510093547 10 0.0 0.0 0.00 0.08 0.00 99 1012.2
20260510092525 10 0.0 0.0 0.00 0.08 0.00 99 1011.9
20260510091616 11 0.0 0.0 0.00 0.08 0.00 99 1011.5
20260510090520 11 0.0 0.0 0.00 0.10 0.00 99 1011.5
20260510085517 11 0.0 0.0 0.00 0.10 0.00 99 1011.4
20260510084515 11 0.0 0.0 0.00 0.10 0.00 99 1011.2
20260510083530 11 0.0 0.0 0.00 0.13 0.00 99 1011.0
20260510082516 11 0.0 0.0 0.00 0.15 0.00 99 1010.8
20260510081519 11 0.0 0.0 0.00 0.18 0.00 99 1010.8
20260510080523 11 0.0 0.0 0.00 0.20 0.00 98 1011.0
20260510075527 11 0.0 0.0 0.00 0.20 0.00 96 1010.8
20260510074530 11 0.0 0.0 0.00 0.20 0.00 96 1010.6
20260510073536 12 0.0 0.0 0.00 0.20 0.00 96 1010.8
20260510072519 12 0.0 0.0 0.00 0.20 0.00 94 1010.8
20260510071523 12 0.0 0.0 0.00 0.20 0.00 94 1010.8
20260510070526 12 0.0 0.0 0.00 0.20 0.00 94 1010.9
20260510065530 13 0.0 0.0 0.00 0.20 0.00 90 1010.9
20260510064515 13 0.0 0.0 0.00 0.20 0.00 89 1010.8
20260510063519 13 0.0 0.0 0.00 0.20 0.00 88 1011.0
20260510062522 14 0.0 0.0 0.00 0.20 0.00 88 1011.0
20260510061526 14 0.0 0.0 0.00 0.20 0.00 84 1010.8
20260510060550 15 0.0 0.0 0.00 0.20 0.00 85 1010.8
20260510055515 15 0.0 0.0 0.00 0.20 0.00 83 1010.9
20260510054519 15 0.0 0.0 0.00 0.20 0.00 81 1011.0
20260510053522 16 45 0.0 3.2 0.00 0.20 0.00 80 1011.0
20260510052546 16 270 0.0 3.2 0.00 0.20 0.00 78 1010.6
20260510051524 16 290 1.6 4.8 0.00 0.20 0.00 78 1010.4
20260510050535 16 145 1.6 4.8 0.00 0.20 0.00 78 1010.4
20260510045519 16 236 0.0 3.2 0.00 0.20 0.00 78 1010.4
20260510044516 16 225 0.0 3.2 0.00 0.20 0.00 79 1010.4
20260510043526 15 283 1.6 3.2 0.00 0.20 0.00 79 1010.3
20260510042529 15 263 0.0 1.6 0.00 0.20 0.00 78 1010.1
20260510041515 15 234 1.6 3.2 0.00 0.20 0.00 78 1010.1
20260510040519 16 0.0 0.0 0.00 0.20 0.00 77 1010.0
20260510035543 16 263 0.0 1.6 0.00 0.20 0.00 76 1010.0
20260510034526 16 270 1.6 3.2 0.00 0.20 0.00 76 1010.0
20260510033530 16 0.0 0.0 0.00 0.20 0.00 74 1009.9
20260510032515 16 250 1.6 4.8 0.00 0.20 0.00 73 1009.8
20260510031519 16 240 1.6 4.8 0.00 0.20 0.00 73 1009.7
20260510030522 16 246 3.2 4.8 0.00 0.20 0.00 73 1009.7
20260510025526 16 248 1.6 4.8 0.00 0.20 0.00 72 1009.7
20260510024550 16 267 3.2 6.4 0.00 0.20 0.00 72 1009.6
20260510023515 17 0.0 0.0 0.00 0.20 0.00 71 1009.5
20260510022538 17 301 0.0 3.2 0.00 0.20 0.00 70 1009.4
20260510021522 17 270 0.0 3.2 0.00 0.20 0.00 69 1009.3
20260510020546 17 251 1.6 3.2 0.00 0.20 0.00 68 1009.0
20260510015549 17 288 1.6 4.8 0.00 0.20 0.00 68 1008.8
20260510014533 17 267 3.2 6.4 0.00 0.20 0.00 67 1008.7
20260510013518 17 267 3.2 4.8 0.00 0.20 0.00 67 1008.5
20260510012522 18 267 1.6 3.2 0.00 0.20 0.00 67 1008.4
20260510011526 18 241 1.6 6.4 0.00 0.20 0.00 66 1008.4
20260510010523 18 280 1.6 3.2 0.00 0.20 0.00 65 1008.4
20260510005521 18 270 0.0 1.6 0.00 0.20 0.00 64 1008.3
20260510004518 19 257 1.6 3.2 0.00 0.20 0.00 62 1008.2
20260510003516 19 279 1.6 4.8 0.00 0.20 0.00 61 1008.0
20260510002525 20 252 1.6 4.8 0.00 0.20 0.00 59 1007.9
20260510001549 20 0.0 0.0 0.00 0.20 0.00 58 1007.9
20260510000532 20 270 1.6 1.6 0.00 0.20 0.00 57 1007.9
20260509235026 21 247 3.2 4.8 0.00 0.20 0.20 54 1007.8
20260509234024 21 278 3.2 8.0 0.00 0.20 0.20 54 1007.6
20260509233015 22 231 4.8 9.7 0.00 0.20 0.20 54 1007.4
20260509232019 22 256 3.2 6.4 0.00 0.20 0.20 53 1007.4
20260509231016 22 256 4.8 9.7 0.00 0.20 0.20 52 1007.4
20260509230026 22 280 3.2 6.4 0.00 0.20 0.20 51 1007.4
20260509225030 22 232 4.8 8.0 0.00 0.20 0.20 51 1007.6
20260509224015 22 256 4.8 12.9 0.00 0.20 0.20 52 1007.6
20260509223019 23 269 4.8 8.0 0.00 0.20 0.20 52 1007.6
20260509222022 23 235 4.8 8.0 0.00 0.20 0.20 53 1007.6
20260509221106 23 246 4.8 9.7 0.00 0.20 0.20 52 1007.7
20260509220029 23 221 3.2 8.0 0.00 0.20 0.20 52 1007.8
20260509215015 23 267 4.8 11.3 0.00 0.20 0.20 52 1007.8
20260509214019 23 248 4.8 8.0 0.00 0.20 0.20 52 1007.7
20260509213022 23 240 3.2 8.0 0.00 0.20 0.20 52 1007.7
20260509212026 23 272 4.8 8.0 0.00 0.20 0.20 52 1007.8
20260509211030 24 239 4.8 9.7 0.00 0.20 0.20 52 1007.8
20260509210015 23 294 4.8 9.7 0.00 0.20 0.20 54 1007.8
20260509205019 23 158 4.8 8.0 0.00 0.20 0.20 53 1008.0
20260509204022 24 198 4.8 6.4 0.00 0.20 0.20 53 1008.3
20260509203046 23 281 4.8 11.3 0.00 0.20 0.20 54 1008.3
20260509202029 23 12 4.8 8.0 0.00 0.20 0.20 55 1008.3
20260509201015 23 271 4.8 8.0 0.00 0.20 0.20 55 1008.4
20260509200039 22 249 4.8 8.0 0.00 0.20 0.20 55 1008.6
20260509195042 23 240 4.8 9.7 0.00 0.20 0.20 54 1008.8
20260509194026 23 261 4.8 6.4 0.00 0.20 0.20 55 1009.0
20260509193023 23 236 6.4 12.9 0.00 0.20 0.20 55 1009.1
20260509192015 23 300 4.8 12.9 0.00 0.20 0.20 57 1009.2
20260509191018 23 205 4.8 11.3 0.00 0.20 0.20 57 1009.2
20260509190016 23 87 6.4 12.9 0.00 0.20 0.20 56 1009.1
20260509185025 22 265 4.8 8.0 0.00 0.20 0.20 58 1009.1
20260509184130 22 219 4.8 6.4 0.00 0.20 0.20 60 1009.2
20260509183033 22 244 4.8 6.4 0.00 0.20 0.20 60 1009.4
20260509182038 22 258 4.8 8.0 0.00 0.20 0.20 63 1009.5
20260509181022 22 268 4.8 6.4 0.00 0.20 0.20 62 1009.6
20260509180025 21 285 6.4 9.7 0.00 0.20 0.20 65 1009.6
20260509175049 22 244 4.8 9.7 0.03 0.20 0.20 64 1009.7
20260509174033 21 51 4.8 8.0 0.03 0.20 0.20 67 1009.7
20260509173019 21 210 4.8 8.0 0.03 0.20 0.20 67 1009.9
20260509172021 20 268 6.4 12.9 0.03 0.20 0.20 68 1009.9
20260509171045 20 278 4.8 8.0 0.03 0.20 0.20 69 1009.8
20260509170029 20 208 3.2 6.4 0.03 0.20 0.20 70 1009.8
20260509165032 20 17 1.6 6.4 0.00 0.18 0.18 72 1009.9
20260509164018 20 242 4.8 8.0 0.00 0.18 0.18 74 1009.9
20260509163021 20 217 3.2 6.4 0.00 0.18 0.18 76 1009.9
20260509162025 19 271 4.8 6.4 0.00 0.18 0.18 77 1009.9
20260509161029 18 209 3.2 8.0 0.00 0.18 0.18 79 1009.9
20260509160032 17 85 1.6 4.8 0.00 0.18 0.18 82 1009.7
20260509155038 16 277 3.2 6.4 0.00 0.18 0.18 83 1009.7
20260509154042 17 0.0 3.2 0.00 0.18 0.18 84 1009.6
20260509153045 16 285 3.2 6.4 0.00 0.18 0.18 86 1009.6
20260509152023 16 206 4.8 4.8 0.00 0.18 0.18 89 1009.7
20260509151020 16 252 1.6 4.8 0.00 0.18 0.18 91 1009.7
20260509150038 15 268 3.2 4.8 0.00 0.18 0.18 91 1009.6
20260509145016 16 327 1.6 3.2 0.00 0.18 0.18 93 1009.5
20260509144025 15 281 1.6 4.8 0.00 0.18 0.18 94 1009.5